sat.trackr.live / text

‹ back to catalog

STARLINK-31436

NORAD 59019 · 2024-036X

PAYLOAD ACTIVE UNKNOWN

§ Identity

Operator
Country
US
Launch date
2024-02-23
Launch site
AFWTR
Launch vehicle
Mass (kg)
RCS (m²)

Purposes: comms

External: N2YO · Heavens-Above · Gunter

§ Orbital elements

Epoch: 2026-05-25T03:30:59.575968Z

Period
94.11 min
Inclination
53.1608°
Eccentricity
0.0001279
Mean motion
15.30194942 rev/d
Perigee alt
474.4 km
Apogee alt
476.1 km
Semi-major
6,853.4 km
B*
7.2439e-5
RAAN
83.3759°
Arg perigee
92.7698°
Mean anomaly
267.3450°
Rev number
12,702

§ Raw data

STARLINK-314361 59019U 24036X   26145.14652287  .00001786  00000+0  72439-4 0  99922 59019  53.1608  83.3759 0001279  92.7698 267.3450 15.30194942127021

JSON: /api/v1/satellites/59019 · /tle

For live sub-satellite position, see the globe view (requires WebGL).

§ Visibility from observer

Set your observer location to see the next 7 days of passes ≥ 10°. The values pass through the URL so the page stays shareable.

No JS? Fill the form by hand. The geolocation button needs JavaScript.